FENGYUN 1C DEB, 30066

Orbit data source: Space-Track

FENGYUN 1C DEB, 30066 is space debris in SSO originally from a launch on Mon, 10 May 1999 UTC launched from the Taiyaun Space Center, China (TSC). Fengyun 1C debris stems from the Chinese weather satellite Fengyun-1C, which was intentionally destroyed by a Chinese anti-satellite missile in 2007. This event dramatically increased the amount of space debris, with thousands of trackable fragments posing hazards to satellites and human spaceflight. The Fengyun 1C debris cloud has become a focal point in discussions about space sustainability and the need for international regulations to prevent the creation of new debris.

Loading next visibility...
Identifier
30066, 1999-025PT
Orbit
SSO
Country
Flag of CNCN / PRC
Related business
Manufacturer
Unknown
Mission
Spacecraft
Bus & Motor
Unknown
Mass
Unknown
Launch date (UTC)
1999-05-10 (27 years ago)
Launch vehicle
Unknown
Launch site
Taiyaun Space Center, China (TSC)
Object type
Payload
Rocket body
Debris
Shape & HBR
Unknown shape, 0.1 m
Radar Cross Section
Medium (>0.1 m² and <1 m²)

Expand to show TLE details & history
Last TLE update: 16 hours ago

TLE from 16 hours ago
0 FENGYUN 1C DEB
1 30066U 99025PT  26207.45453926  .00000289  00000-0  14847-3 0  9991
2 30066  98.6494 197.4253 0117033 331.6605 180.8312 14.19258803 10372
Epoch: 2026-07-26T10:54Z
TLE epoch observation values (Epoch: 2026-07-26T10:54:32.192Z)
Latitude
27.22722°
Longitude
-85.89546°
Altitude
915.528 km
Speed
7.353 km/s
True Right ascension
01h 27m 33s
True Declination
27° 05' 26"
Sunlit
Object was in daylight at epoch
Visualization orbit readout
Latitude
Unknown
Longitude
Unknown
Altitude
Unknown
Speed
Unknown
Apparent Right ascension
Unknown
Apparent Declination
Unknown
Sunlit
N/A
Visualization observer readout
Local Sidereal Time
16:16:06
Azimuth
Unknown
Elevation
Unknown
Doppler factor
Unknown
Orbital elements
Apogee altitude
909.317 km
Perigee altitude
740.716 km
Semi-major axis
7,203.154 km
Eccentricity
0.0117
Inclination
98.6494°
RAAN
197.4253°
Arg. of periapsis
331.6605°
True anomaly
180.81203°
Mean anomaly
180.8312°
Eccentric anomaly
180.82159°
Mean motion
3.55025 °/min
Orbital period
101.4 mins
BSTAR
0.00014847
Loading maneuver chart data...
Computing Atmospheric mass density...

Documentation

Showing up to 5 results
|